{"data":{"norad_id":46701,"intl_designator":"2020-073AH","name":"STARLINK-1801","alt_names":[],"object_type":"PAYLOAD","status":"ACTIVE","operator":null,"country":"US","launch_date":"2020-10-18","launch_site_code":"AFETR","launch_vehicle":null,"mission":null,"orbit_class":"UNKNOWN","rcs_meters":null,"size_class":null,"mass_kg":null,"dimensions":null,"purposes":["comms"],"wikipedia_slug":null,"has_3d_model":false,"image_url":null,"decayed_at":null,"tle_current":{"epoch":"2026-05-25T01:33:31.001760Z","epoch_age_seconds":65380,"freshness":"FRESH","line1":"1 46701U 20073AH  26145.06494215  .00881796  44208-3  96798-3 0  9991","line2":"2 46701  53.0299 171.5765 0009623  23.4098 336.7371 16.09070915309860","mean_motion":16.09070915,"eccentricity":0.0009623,"inclination_deg":53.0299,"raan_deg":171.5765,"arg_perigee_deg":23.4098,"mean_anomaly_deg":336.7371,"bstar":0.00096798,"rev_number":30986,"period_min":89.49263743295,"perigee_km":243.01556995262,"apogee_km":255.77091465696,"semimajor_km":6627.5302423048,"source":"CELESTRAK","updated_at":"2026-05-25T13:38:16.516121Z"}}}